Time,TemperatureF,DewpointF,PressureIn,WindDirection,WindDirectionDegrees,WindSpeedMPH,WindSpeedGustMPH,Humidity,HourlyPrecipIn,Conditions,Clouds,dailyrainin,SoftwareType,DateUTC
2013-03-05 00:00:00,32.0,21.6,29.71,WNW,292,2.5,2.9,65,0.00,,,0.00,Weather8,2013-03-05 05:00:00,
2013-03-05 00:01:00,32.0,21.2,29.71,NNW,337,1.6,2.9,64,0.00,,,0.00,Weather8,2013-03-05 05:01:00,
2013-03-05 00:07:00,32.0,22.0,29.71,NNW,337,2.5,3.6,66,0.00,,,0.00,Weather8,2013-03-05 05:07:00,
2013-03-05 00:12:00,32.0,22.0,29.71,WNW,292,2.2,3.6,66,0.00,,,0.00,Weather8,2013-03-05 05:12:00,
2013-03-05 00:17:00,32.0,22.0,29.71,NW,315,2.0,3.4,66,0.00,,,0.00,Weather8,2013-03-05 05:17:00,
2013-03-05 00:22:00,32.0,22.0,29.71,WNW,292,3.4,3.4,66,0.00,,,0.00,Weather8,2013-03-05 05:22:00,
2013-03-05 00:27:00,32.2,22.2,29.71,NNW,337,2.9,3.4,66,0.00,,,0.00,Weather8,2013-03-05 05:27:00,
2013-03-05 00:32:00,32.0,22.0,29.71,WNW,292,3.4,3.4,66,0.00,,,0.00,Weather8,2013-03-05 05:32:00,
2013-03-05 00:37:00,32.2,22.2,29.71,North,0,3.4,3.6,66,0.00,,,0.00,Weather8,2013-03-05 05:37:00,
2013-03-05 00:42:00,32.4,22.3,29.71,NW,315,2.9,5.4,66,0.00,,,0.00,Weather8,2013-03-05 05:42:00,
2013-03-05 00:47:00,32.4,22.3,29.72,NNW,337,4.0,5.4,66,0.00,,,0.00,Weather8,2013-03-05 05:47:00,
2013-03-05 00:52:00,32.6,22.4,29.72,NW,315,3.4,4.0,66,0.00,,,0.00,Weather8,2013-03-05 05:52:00,
2013-03-05 00:57:00,32.8,22.2,29.72,NW,315,3.4,6.9,65,0.00,,,0.00,Weather8,2013-03-05 05:57:00,
2013-03-05 01:02:00,32.8,22.2,29.72,NNW,337,5.4,6.9,65,0.00,,,0.00,Weather8,2013-03-05 06:02:00,
2013-03-05 01:07:00,32.8,22.2,29.72,WNW,292,5.6,8.7,65,0.00,,,0.00,Weather8,2013-03-05 06:07:00,
2013-03-05 01:12:00,32.8,22.2,29.72,North,0,3.4,8.7,65,0.00,,,0.00,Weather8,2013-03-05 06:12:00,
2013-03-05 01:17:00,32.8,22.2,29.72,North,0,4.0,8.7,65,0.00,,,0.00,Weather8,2013-03-05 06:17:00,
2013-03-05 01:22:00,32.8,22.2,29.72,NNW,337,3.6,6.9,65,0.00,,,0.00,Weather8,2013-03-05 06:22:00,
2013-03-05 01:27:00,32.8,22.2,29.72,NW,315,2.5,6.9,65,0.00,,,0.00,Weather8,2013-03-05 06:27:00,
2013-03-05 01:32:00,32.8,22.2,29.72,NNW,337,4.0,7.2,65,0.00,,,0.00,Weather8,2013-03-05 06:32:00,
2013-03-05 01:37:00,32.8,22.2,29.72,North,0,3.6,7.2,65,0.00,,,0.00,Weather8,2013-03-05 06:37:00,
2013-03-05 01:42:00,32.6,22.1,29.72,NNW,337,2.5,5.8,65,0.00,,,0.00,Weather8,2013-03-05 06:42:00,
2013-03-05 01:47:00,32.6,22.1,29.72,NNW,337,6.7,6.7,65,0.00,,,0.00,Weather8,2013-03-05 06:47:00,
2013-03-05 01:52:00,32.6,22.4,29.72,NNW,337,3.8,6.7,66,0.00,,,0.00,Weather8,2013-03-05 06:52:00,
2013-03-05 01:57:00,32.4,22.3,29.71,NNW,337,3.1,6.7,66,0.00,,,0.00,Weather8,2013-03-05 06:57:00,
2013-03-05 02:02:00,32.4,22.3,29.71,NNW,337,2.5,6.0,66,0.00,,,0.00,Weather8,2013-03-05 07:02:00,
2013-03-05 02:07:00,32.4,22.3,29.72,NNW,337,4.5,6.0,66,0.00,,,0.00,Weather8,2013-03-05 07:07:00,
2013-03-05 02:12:00,32.2,22.2,29.71,NW,315,2.2,6.0,66,0.00,,,0.00,Weather8,2013-03-05 07:12:00,
2013-03-05 02:17:00,32.2,22.2,29.72,NNW,337,2.9,5.4,66,0.00,,,0.00,Weather8,2013-03-05 07:17:00,
2013-03-05 02:22:00,32.2,22.2,29.72,NNW,337,3.6,5.4,66,0.00,,,0.00,Weather8,2013-03-05 07:22:00,
2013-03-05 02:27:00,32.2,22.2,29.72,NNW,337,3.4,5.4,66,0.00,,,0.00,Weather8,2013-03-05 07:27:00,
2013-03-05 02:32:00,32.0,22.3,29.71,NNW,337,5.1,5.4,67,0.00,,,0.00,Weather8,2013-03-05 07:32:00,
2013-03-05 02:37:00,32.0,22.3,29.71,NW,315,2.9,5.4,67,0.00,,,0.00,Weather8,2013-03-05 07:37:00,
2013-03-05 02:42:00,32.0,22.0,29.71,North,0,2.7,5.1,66,0.00,,,0.00,Weather8,2013-03-05 07:42:00,
2013-03-05 02:47:00,32.0,22.0,29.71,NNW,337,3.4,4.0,66,0.00,,,0.00,Weather8,2013-03-05 07:47:00,
2013-03-05 02:52:00,31.9,21.8,29.71,NNW,337,2.2,4.0,66,0.00,,,0.00,Weather8,2013-03-05 07:52:00,
2013-03-05 02:57:00,31.9,21.8,29.71,NNW,337,1.6,4.0,66,0.00,,,0.00,Weather8,2013-03-05 07:57:00,
2013-03-05 03:02:00,31.9,21.8,29.72,NW,315,3.4,5.4,66,0.00,,,0.00,Weather8,2013-03-05 08:02:00,
2013-03-05 03:07:00,31.7,21.6,29.72,WNW,292,1.1,5.4,66,0.00,,,0.00,Weather8,2013-03-05 08:07:00,
2013-03-05 03:12:00,31.7,21.6,29.72,NNW,337,1.3,4.0,66,0.00,,,0.00,Weather8,2013-03-05 08:12:00,
2013-03-05 03:17:00,31.7,21.6,29.72,North,0,3.1,4.0,66,0.00,,,0.00,Weather8,2013-03-05 08:17:00,
2013-03-05 03:22:00,31.5,21.8,29.72,NW,315,3.6,4.0,67,0.00,,,0.00,Weather8,2013-03-05 08:22:00,
2013-03-05 03:27:00,31.7,22.0,29.73,NW,315,1.8,4.0,67,0.00,,,0.00,Weather8,2013-03-05 08:27:00,
2013-03-05 03:32:00,31.5,21.8,29.73,NNW,337,2.5,6.9,67,0.00,,,0.00,Weather8,2013-03-05 08:32:00,
2013-03-05 03:37:00,31.7,22.0,29.73,NNW,337,3.8,6.9,67,0.00,,,0.00,Weather8,2013-03-05 08:37:00,
2013-03-05 03:42:00,31.5,21.8,29.73,NNW,337,3.4,6.9,67,0.00,,,0.00,Weather8,2013-03-05 08:42:00,
2013-03-05 03:47:00,31.5,21.8,29.73,NW,315,1.1,5.1,67,0.00,,,0.00,Weather8,2013-03-05 08:47:00,
2013-03-05 03:52:00,31.5,21.8,29.74,NW,315,2.5,5.1,67,0.00,,,0.00,Weather8,2013-03-05 08:52:00,
2013-03-05 03:57:00,31.5,21.8,29.74,WNW,292,1.1,2.5,67,0.00,,,0.00,Weather8,2013-03-05 08:57:00,
2013-03-05 04:02:00,31.5,21.8,29.74,NNW,337,1.1,2.5,67,0.00,,,0.00,Weather8,2013-03-05 09:02:00,
2013-03-05 04:07:00,31.3,21.6,29.74,NNW,337,2.5,3.1,67,0.00,,,0.00,Weather8,2013-03-05 09:07:00,
2013-03-05 04:12:00,31.3,21.6,29.74,NNW,337,1.6,3.1,67,0.00,,,0.00,Weather8,2013-03-05 09:12:00,
2013-03-05 04:17:00,31.3,21.6,29.75,WNW,292,1.6,2.9,67,0.00,,,0.00,Weather8,2013-03-05 09:17:00,
2013-03-05 04:22:00,31.1,21.1,29.75,NW,315,1.3,2.9,66,0.00,,,0.00,Weather8,2013-03-05 09:22:00,
2013-03-05 04:27:00,31.1,21.4,29.75,WSW,247,0.9,1.6,67,0.00,,,0.00,Weather8,2013-03-05 09:27:00,
2013-03-05 04:32:00,31.0,20.9,29.75,North,0,0.4,1.8,66,0.00,,,0.00,Weather8,2013-03-05 09:32:00,
2013-03-05 04:37:00,31.0,21.2,29.75,NW,315,1.3,1.8,67,0.00,,,0.00,Weather8,2013-03-05 09:37:00,
2013-03-05 04:42:00,30.8,21.1,29.76,NW,315,1.6,2.0,67,0.00,,,0.00,Weather8,2013-03-05 09:42:00,
2013-03-05 04:47:00,30.6,21.2,29.76,NW,315,0.7,4.0,68,0.00,,,0.00,Weather8,2013-03-05 09:47:00,
2013-03-05 04:52:00,30.6,21.6,29.76,WNW,292,1.6,4.0,69,0.00,,,0.00,Weather8,2013-03-05 09:52:00,
2013-03-05 04:57:00,30.6,21.6,29.76,North,0,2.2,4.0,69,0.00,,,0.00,Weather8,2013-03-05 09:57:00,
2013-03-05 05:02:00,30.4,21.4,29.76,NW,315,2.7,3.4,69,0.00,,,0.00,Weather8,2013-03-05 10:02:00,
2013-03-05 05:07:00,30.4,21.4,29.77,NW,315,0.4,2.7,69,0.00,,,0.00,Weather8,2013-03-05 10:07:00,
2013-03-05 05:12:00,30.4,21.1,29.77,NNW,337,0.4,2.7,68,0.00,,,0.00,Weather8,2013-03-05 10:12:00,
2013-03-05 05:17:00,30.4,21.4,29.77,NNW,337,2.5,2.5,69,0.00,,,0.00,Weather8,2013-03-05 10:17:00,
2013-03-05 05:22:00,30.2,21.6,29.77,North,0,2.2,3.4,70,0.00,,,0.00,Weather8,2013-03-05 10:22:00,
2013-03-05 05:27:00,30.2,21.6,29.77,NNW,337,2.7,3.4,70,0.00,,,0.00,Weather8,2013-03-05 10:27:00,
2013-03-05 05:32:00,30.2,21.6,29.77,NNW,337,2.9,4.0,70,0.00,,,0.00,Weather8,2013-03-05 10:32:00,
2013-03-05 05:37:00,30.2,21.6,29.77,NW,315,2.5,5.1,70,0.00,,,0.00,Weather8,2013-03-05 10:37:00,
2013-03-05 05:42:00,30.2,22.0,29.77,NW,315,3.4,5.1,71,0.00,,,0.00,Weather8,2013-03-05 10:42:00,
2013-03-05 05:47:00,30.2,22.0,29.77,NNW,337,2.5,4.3,71,0.00,,,0.00,Weather8,2013-03-05 10:47:00,
2013-03-05 05:52:00,30.2,22.0,29.77,NNW,337,1.8,4.3,71,0.00,,,0.00,Weather8,2013-03-05 10:52:00,
2013-03-05 05:57:00,30.2,22.0,29.77,NNW,337,2.5,4.3,71,0.00,,,0.00,Weather8,2013-03-05 10:57:00,
2013-03-05 06:02:00,30.2,22.0,29.77,NNW,337,2.7,4.7,71,0.00,,,0.00,Weather8,2013-03-05 11:02:00,
2013-03-05 06:07:00,30.1,21.8,29.77,NW,315,3.4,4.7,71,0.00,,,0.00,Weather8,2013-03-05 11:07:00,
2013-03-05 06:12:00,30.1,21.8,29.77,NNW,337,3.6,4.7,71,0.00,,,0.00,Weather8,2013-03-05 11:12:00,
2013-03-05 06:17:00,30.1,22.1,29.77,NW,315,3.4,4.5,72,0.00,,,0.00,Weather8,2013-03-05 11:17:00,
2013-03-05 06:22:00,30.1,21.8,29.77,NNW,337,6.3,6.3,71,0.00,,,0.00,Weather8,2013-03-05 11:22:00,
2013-03-05 06:27:00,30.1,21.8,29.77,NW,315,3.4,6.3,71,0.00,,,0.00,Weather8,2013-03-05 11:27:00,
2013-03-05 06:32:00,30.1,21.4,29.77,NW,315,0.7,6.3,70,0.00,,,0.00,Weather8,2013-03-05 11:32:00,
2013-03-05 06:37:00,30.1,21.4,29.78,WNW,292,0.2,3.4,70,0.00,,,0.00,Weather8,2013-03-05 11:37:00,
2013-03-05 06:42:00,30.1,21.4,29.78,WNW,292,1.1,1.8,70,0.00,,,0.00,Weather8,2013-03-05 11:42:00,
2013-03-05 06:47:00,29.9,21.6,29.78,NW,315,3.4,3.4,71,0.00,,,0.00,Weather8,2013-03-05 11:47:00,
2013-03-05 06:52:00,30.1,21.8,29.78,NW,315,3.1,3.4,71,0.00,,,0.00,Weather8,2013-03-05 11:52:00,
2013-03-05 06:57:00,30.2,22.0,29.78,NNE,22,2.9,3.4,71,0.00,,,0.00,Weather8,2013-03-05 11:57:00,
2013-03-05 07:02:00,30.6,22.3,29.78,NNW,337,2.2,3.8,71,0.00,,,0.00,Weather8,2013-03-05 12:02:00,
2013-03-05 07:07:00,30.6,22.3,29.79,WNW,292,2.5,3.8,71,0.00,,,0.00,Weather8,2013-03-05 12:07:00,
2013-03-05 07:12:00,30.8,22.5,29.79,NW,315,1.1,3.8,71,0.00,,,0.00,Weather8,2013-03-05 12:12:00,
2013-03-05 07:17:00,31.0,22.7,29.79,NW,315,2.7,4.5,71,0.00,,,0.00,Weather8,2013-03-05 12:17:00,
2013-03-05 07:22:00,31.1,22.9,29.79,North,0,2.5,4.5,71,0.00,,,0.00,Weather8,2013-03-05 12:22:00,
2013-03-05 07:27:00,31.3,23.1,29.79,North,0,1.8,3.8,71,0.00,,,0.00,Weather8,2013-03-05 12:27:00,
2013-03-05 07:32:00,31.9,23.2,29.79,NNW,337,1.8,3.8,70,0.00,,,0.00,Weather8,2013-03-05 12:32:00,
2013-03-05 07:37:00,32.0,23.4,29.79,NNW,337,4.0,4.9,70,0.00,,,0.00,Weather8,2013-03-05 12:37:00,
2013-03-05 07:42:00,32.4,23.8,29.80,NNW,337,3.6,4.9,70,0.00,,,0.00,Weather8,2013-03-05 12:42:00,
2013-03-05 07:47:00,32.6,23.5,29.80,North,0,3.4,5.4,69,0.00,,,0.00,Weather8,2013-03-05 12:47:00,
2013-03-05 07:52:00,32.9,23.9,29.80,NNW,337,2.5,6.9,69,0.00,,,0.00,Weather8,2013-03-05 12:52:00,
2013-03-05 07:57:00,33.1,23.7,29.80,NNW,337,4.5,6.9,68,0.00,,,0.00,Weather8,2013-03-05 12:57:00,
2013-03-05 08:02:00,33.3,23.5,29.80,North,0,5.8,6.9,67,0.00,,,0.00,Weather8,2013-03-05 13:02:00,
2013-03-05 08:07:00,33.7,23.8,29.81,NNW,337,5.4,5.8,67,0.00,,,0.00,Weather8,2013-03-05 13:07:00,
2013-03-05 08:12:00,34.0,24.1,29.81,North,0,2.9,5.8,67,0.00,,,0.00,Weather8,2013-03-05 13:12:00,
2013-03-05 08:17:00,34.4,24.1,29.81,NNW,337,3.4,5.4,66,0.00,,,0.00,Weather8,2013-03-05 13:17:00,
2013-03-05 08:22:00,34.7,24.1,29.81,WNW,292,4.3,6.3,65,0.00,,,0.00,Weather8,2013-03-05 13:22:00,
2013-03-05 08:27:00,35.1,24.1,29.81,North,0,6.7,6.7,64,0.00,,,0.00,Weather8,2013-03-05 13:27:00,
2013-03-05 08:32:00,35.6,24.3,29.81,North,0,4.3,6.7,63,0.00,,,0.00,Weather8,2013-03-05 13:32:00,
2013-03-05 08:37:00,35.6,24.3,29.81,NNW,337,4.7,6.7,63,0.00,,,0.00,Weather8,2013-03-05 13:37:00,
2013-03-05 08:42:00,36.0,24.3,29.81,NNW,337,6.7,6.7,62,0.00,,,0.00,Weather8,2013-03-05 13:42:00,
2013-03-05 08:47:00,36.4,24.6,29.81,North,0,5.4,6.7,62,0.00,,,0.00,Weather8,2013-03-05 13:47:00,
2013-03-05 08:52:00,36.9,24.4,29.81,North,0,7.4,7.4,60,0.00,,,0.00,Weather8,2013-03-05 13:52:00,
2013-03-05 08:57:00,37.1,24.5,29.81,North,0,4.0,7.4,60,0.00,,,0.00,Weather8,2013-03-05 13:57:00,
2013-03-05 09:02:00,37.3,24.7,29.82,NNW,337,5.8,7.4,60,0.00,,,0.00,Weather8,2013-03-05 14:02:00,
2013-03-05 09:07:00,37.4,24.8,29.82,North,0,4.9,6.9,60,0.00,,,0.00,Weather8,2013-03-05 14:07:00,
2013-03-05 09:12:00,37.8,25.2,29.82,North,0,4.0,6.9,60,0.00,,,0.00,Weather8,2013-03-05 14:12:00,
2013-03-05 09:17:00,38.3,25.2,29.82,North,0,3.4,5.8,59,0.00,,,0.00,Weather8,2013-03-05 14:17:00,
2013-03-05 09:22:00,38.9,25.8,29.82,North,0,5.1,6.7,59,0.00,,,0.00,Weather8,2013-03-05 14:22:00,
2013-03-05 09:27:00,39.2,25.2,29.82,NNW,337,6.7,6.7,57,0.00,,,0.00,Weather8,2013-03-05 14:27:00,
2013-03-05 09:32:00,39.2,25.2,29.81,North,0,4.9,6.7,57,0.00,,,0.00,Weather8,2013-03-05 14:32:00,
2013-03-05 09:37:00,39.2,25.2,29.81,NNW,337,3.4,6.7,57,0.00,,,0.00,Weather8,2013-03-05 14:37:00,
2013-03-05 09:42:00,39.6,25.5,29.81,North,0,7.8,7.8,57,0.00,,,0.00,Weather8,2013-03-05 14:42:00,
2013-03-05 09:47:00,40.0,25.4,29.81,NNW,337,2.5,7.8,56,0.00,,,0.00,Weather8,2013-03-05 14:47:00,
2013-03-05 09:52:00,40.3,25.7,29.81,NNW,337,5.1,7.8,56,0.00,,,0.00,Weather8,2013-03-05 14:52:00,
2013-03-05 09:57:00,40.7,26.1,29.81,NNW,337,3.4,5.8,56,0.00,,,0.00,Weather8,2013-03-05 14:57:00,
2013-03-05 10:02:00,41.4,26.4,29.81,NNW,337,5.8,5.8,55,0.00,,,0.00,Weather8,2013-03-05 15:02:00,
2013-03-05 10:07:00,41.8,25.8,29.80,North,0,5.4,5.8,53,0.00,,,0.00,Weather8,2013-03-05 15:07:00,
2013-03-05 10:12:00,41.9,26.0,29.80,NNW,337,4.0,5.8,53,0.00,,,0.00,Weather8,2013-03-05 15:12:00,
2013-03-05 10:17:00,42.1,25.8,29.80,NW,315,6.5,6.5,52,0.00,,,0.00,Weather8,2013-03-05 15:17:00,
2013-03-05 10:22:00,42.7,26.3,29.80,NNW,337,5.4,7.6,52,0.00,,,0.00,Weather8,2013-03-05 15:22:00,
2013-03-05 10:27:00,43.0,27.0,29.80,NW,315,2.0,7.6,53,0.00,,,0.00,Weather8,2013-03-05 15:27:00,
2013-03-05 10:32:00,43.6,27.1,29.80,East,90,4.3,5.4,52,0.00,,,0.00,Weather8,2013-03-05 15:32:00,
2013-03-05 10:37:00,43.9,26.6,29.80,North,0,3.4,5.4,50,0.00,,,0.00,Weather8,2013-03-05 15:37:00,
2013-03-05 10:42:00,43.9,26.6,29.80,NW,315,2.7,6.9,50,0.00,,,0.00,Weather8,2013-03-05 15:42:00,
2013-03-05 10:47:00,44.1,26.7,29.80,NNW,337,6.0,6.9,50,0.00,,,0.00,Weather8,2013-03-05 15:47:00,
2013-03-05 10:52:00,44.1,27.2,29.79,North,0,2.7,6.9,51,0.00,,,0.00,Weather8,2013-03-05 15:52:00,
2013-03-05 10:57:00,44.6,27.2,29.79,North,0,4.3,6.0,50,0.00,,,0.00,Weather8,2013-03-05 15:57:00,
2013-03-05 11:02:00,45.0,27.6,29.79,North,0,4.9,4.9,50,0.00,,,0.00,Weather8,2013-03-05 16:02:00,
2013-03-05 11:07:00,45.5,28.4,29.79,NNE,22,3.1,4.9,51,0.00,,,0.00,Weather8,2013-03-05 16:07:00,
2013-03-05 11:12:00,46.1,27.9,29.79,NNW,337,3.8,4.9,49,0.00,,,0.00,Weather8,2013-03-05 16:12:00,
2013-03-05 11:17:00,45.9,27.3,29.79,NNW,337,2.2,6.7,48,0.00,,,0.00,Weather8,2013-03-05 16:17:00,
2013-03-05 11:22:00,46.3,27.5,29.79,NW,315,3.8,6.7,48,0.00,,,0.00,Weather8,2013-03-05 16:22:00,
2013-03-05 11:27:00,46.4,27.7,29.79,NE,45,3.4,6.3,48,0.00,,,0.00,Weather8,2013-03-05 16:27:00,
2013-03-05 11:32:00,47.3,29.1,29.79,North,0,3.8,3.8,49,0.00,,,0.00,Weather8,2013-03-05 16:32:00,
2013-03-05 11:37:00,47.9,28.4,29.79,NW,315,2.5,3.8,47,0.00,,,0.00,Weather8,2013-03-05 16:37:00,
2013-03-05 11:42:00,48.2,28.3,29.79,North,0,2.5,4.5,46,0.00,,,0.00,Weather8,2013-03-05 16:42:00,
2013-03-05 11:47:00,48.6,28.6,29.79,WSW,247,8.5,8.5,46,0.00,,,0.00,Weather8,2013-03-05 16:47:00,
2013-03-05 11:52:00,49.0,29.0,29.79,WNW,292,4.0,10.7,46,0.00,,,0.00,Weather8,2013-03-05 16:52:00,
2013-03-05 11:57:00,49.3,29.4,29.79,NNW,337,2.2,10.7,46,0.00,,,0.00,Weather8,2013-03-05 16:57:00,
2013-03-05 12:02:00,49.7,30.3,29.79,NNW,337,1.1,5.4,47,0.00,,,0.00,Weather8,2013-03-05 17:02:00,
2013-03-05 12:07:00,50.0,29.4,29.79,NW,315,3.8,5.4,45,0.00,,,0.00,Weather8,2013-03-05 17:07:00,
2013-03-05 12:12:00,50.2,28.4,29.79,NNW,337,1.8,4.3,43,0.00,,,0.00,Weather8,2013-03-05 17:12:00,
2013-03-05 12:17:00,50.2,29.6,29.79,SE,135,0.4,4.7,45,0.00,,,0.00,Weather8,2013-03-05 17:17:00,
2013-03-05 12:22:00,50.4,29.8,29.79,SSE,157,1.3,4.7,45,0.00,,,0.00,Weather8,2013-03-05 17:22:00,
2013-03-05 12:27:00,50.9,29.7,29.79,NNW,337,2.7,4.7,44,0.00,,,0.00,Weather8,2013-03-05 17:27:00,
2013-03-05 12:32:00,51.3,28.9,29.79,North,0,3.6,4.9,42,0.00,,,0.00,Weather8,2013-03-05 17:32:00,
2013-03-05 12:37:00,51.7,29.8,29.78,SSW,202,1.1,4.9,43,0.00,,,0.00,Weather8,2013-03-05 17:37:00,
2013-03-05 12:42:00,51.5,29.6,29.78,NNW,337,1.8,4.9,43,0.00,,,0.00,Weather8,2013-03-05 17:42:00,
2013-03-05 12:47:00,52.2,30.8,29.78,North,0,1.3,3.8,44,0.00,,,0.00,Weather8,2013-03-05 17:47:00,
2013-03-05 12:52:00,52.9,31.5,29.78,NW,315,1.1,3.4,44,0.00,,,0.00,Weather8,2013-03-05 17:52:00,
2013-03-05 12:57:00,53.1,31.1,29.78,South,180,1.6,3.4,43,0.00,,,0.00,Weather8,2013-03-05 17:57:00,
2013-03-05 13:02:00,53.1,31.1,29.78,South,180,1.3,5.6,43,0.00,,,0.00,Weather8,2013-03-05 18:02:00,
2013-03-05 13:07:00,52.9,32.1,29.78,ESE,112,2.7,5.6,45,0.00,,,0.00,Weather8,2013-03-05 18:07:00,
2013-03-05 13:12:00,53.3,32.3,29.77,East,90,2.7,5.6,45,0.00,,,0.00,Weather8,2013-03-05 18:12:00,
2013-03-05 13:17:00,53.6,32.1,29.77,South,180,0.4,3.6,44,0.00,,,0.00,Weather8,2013-03-05 18:17:00,
2013-03-05 13:22:00,54.0,32.4,29.77,SE,135,3.4,5.1,44,0.00,,,0.00,Weather8,2013-03-05 18:22:00,
2013-03-05 13:27:00,53.6,32.1,29.77,SE,135,2.2,5.1,44,0.00,,,0.00,Weather8,2013-03-05 18:27:00,
2013-03-05 13:32:00,53.6,32.1,29.77,SE,135,2.9,6.0,44,0.00,,,0.00,Weather8,2013-03-05 18:32:00,
2013-03-05 13:37:00,53.5,31.4,29.77,SW,225,2.5,6.0,43,0.00,,,0.00,Weather8,2013-03-05 18:37:00,
2013-03-05 13:43:00,52.7,31.3,29.77,ESE,112,2.2,6.0,44,0.00,,,0.00,Weather8,2013-03-05 18:43:00,
2013-03-05 13:47:00,52.7,31.9,29.77,SSE,157,2.5,4.5,45,0.00,,,0.00,Weather8,2013-03-05 18:47:00,
2013-03-05 13:52:00,52.6,31.7,29.77,SE,135,1.1,4.5,45,0.00,,,0.00,Weather8,2013-03-05 18:52:00,
2013-03-05 13:57:00,52.2,30.2,29.77,South,180,2.9,3.8,43,0.00,,,0.00,Weather8,2013-03-05 18:57:00,
2013-03-05 14:02:00,52.0,30.1,29.77,SSW,202,4.7,4.7,43,0.00,,,0.00,Weather8,2013-03-05 19:02:00,
2013-03-05 14:07:00,51.8,30.0,29.77,ESE,112,1.3,4.7,43,0.00,,,0.00,Weather8,2013-03-05 19:07:00,
2013-03-05 14:13:00,51.3,29.4,29.77,SSW,202,2.2,4.7,43,0.00,,,0.00,Weather8,2013-03-05 19:13:00,
2013-03-05 14:18:00,51.8,30.5,29.77,SW,225,2.9,4.5,44,0.00,,,0.00,Weather8,2013-03-05 19:18:00,
2013-03-05 14:23:00,52.7,31.3,29.77,SW,225,1.8,4.5,44,0.00,,,0.00,Weather8,2013-03-05 19:23:00,
2013-03-05 14:28:00,53.3,31.8,29.77,West,270,0.9,4.5,44,0.00,,,0.00,Weather8,2013-03-05 19:28:00,
2013-03-05 14:33:00,53.5,32.0,29.77,West,270,1.3,2.5,44,0.00,,,0.00,Weather8,2013-03-05 19:33:00,
2013-03-05 14:38:00,53.6,31.0,29.77,NNE,22,4.7,4.7,42,0.00,,,0.00,Weather8,2013-03-05 19:38:00,
2013-03-05 14:43:00,53.6,31.6,29.77,North,0,4.7,5.4,43,0.00,,,0.00,Weather8,2013-03-05 19:43:00,
2013-03-05 14:48:00,53.3,31.8,29.77,East,90,3.6,6.3,44,0.00,,,0.00,Weather8,2013-03-05 19:48:00,
2013-03-05 14:53:00,52.6,31.1,29.77,ENE,67,1.1,6.3,44,0.00,,,0.00,Weather8,2013-03-05 19:53:00,
2013-03-05 14:58:00,52.2,30.8,29.77,East,90,1.8,4.0,44,0.00,,,0.00,Weather8,2013-03-05 19:58:00,
2013-03-05 15:03:00,50.8,30.6,29.77,SSE,157,4.9,4.9,46,0.00,,,0.00,Weather8,2013-03-05 20:03:00,
2013-03-05 15:08:00,49.7,30.3,29.77,South,180,3.4,4.9,47,0.00,,,0.00,Weather8,2013-03-05 20:08:00,
2013-03-05 15:13:00,49.0,30.1,29.77,South,180,5.8,6.5,48,0.00,,,0.00,Weather8,2013-03-05 20:13:00,
2013-03-05 15:18:00,48.8,30.4,29.77,SE,135,2.2,6.5,49,0.00,,,0.00,Weather8,2013-03-05 20:18:00,
2013-03-05 15:23:00,48.6,30.3,29.77,SE,135,2.2,5.8,49,0.00,,,0.00,Weather8,2013-03-05 20:23:00,
2013-03-05 15:28:00,48.4,30.1,29.77,SE,135,3.6,4.0,49,0.00,,,0.00,Weather8,2013-03-05 20:28:00,
2013-03-05 15:33:00,48.1,29.7,29.77,SE,135,3.1,5.4,49,0.00,,,0.00,Weather8,2013-03-05 20:33:00,
2013-03-05 15:38:00,47.9,30.1,29.77,South,180,3.4,5.4,50,0.00,,,0.00,Weather8,2013-03-05 20:38:00,
2013-03-05 15:43:00,47.5,29.8,29.77,SE,135,1.8,4.3,50,0.00,,,0.00,Weather8,2013-03-05 20:43:00,
2013-03-05 15:48:00,47.3,29.6,29.77,SSE,157,3.1,3.4,50,0.00,,,0.00,Weather8,2013-03-05 20:48:00,
2013-03-05 15:53:00,47.2,29.9,29.77,SSE,157,3.4,3.8,51,0.00,,,0.00,Weather8,2013-03-05 20:53:00,
2013-03-05 15:58:00,47.0,30.3,29.77,SSE,157,2.0,3.8,52,0.00,,,0.00,Weather8,2013-03-05 20:58:00,
2013-03-05 16:03:00,46.8,30.5,29.77,SE,135,3.1,5.4,53,0.00,,,0.00,Weather8,2013-03-05 21:03:00,
2013-03-05 16:08:00,46.4,30.2,29.77,SSE,157,2.2,5.4,53,0.00,,,0.00,Weather8,2013-03-05 21:08:00,
2013-03-05 16:13:00,46.3,30.4,29.76,SSE,157,3.4,5.4,54,0.00,,,0.00,Weather8,2013-03-05 21:13:00,
2013-03-05 16:18:00,45.7,30.0,29.76,SSE,157,2.9,4.0,54,0.00,,,0.00,Weather8,2013-03-05 21:18:00,
2013-03-05 16:23:00,45.4,30.1,29.76,SE,135,2.5,4.0,55,0.00,,,0.00,Weather8,2013-03-05 21:23:00,
2013-03-05 16:28:00,45.0,29.8,29.76,South,180,0.7,3.6,55,0.00,,,0.00,Weather8,2013-03-05 21:28:00,
2013-03-05 16:33:00,45.0,30.3,29.76,South,180,2.5,3.6,56,0.00,,,0.00,Weather8,2013-03-05 21:33:00,
2013-03-05 16:38:00,44.8,29.6,29.76,South,180,3.4,3.4,55,0.00,,,0.00,Weather8,2013-03-05 21:38:00,
2013-03-05 16:43:00,44.3,29.1,29.76,East,90,2.2,3.4,55,0.00,,,0.00,Weather8,2013-03-05 21:43:00,
2013-03-05 16:48:00,44.3,29.5,29.76,SSE,157,1.3,4.0,56,0.00,,,0.00,Weather8,2013-03-05 21:48:00,
2013-03-05 16:53:00,43.9,29.6,29.76,SE,135,1.3,4.0,57,0.00,,,0.00,Weather8,2013-03-05 21:53:00,
2013-03-05 16:58:00,43.7,29.4,29.76,South,180,1.8,3.8,57,0.00,,,0.00,Weather8,2013-03-05 21:58:00,
2013-03-05 17:03:00,43.6,29.3,29.76,SSE,157,1.8,3.8,57,0.00,,,0.00,Weather8,2013-03-05 22:03:00,
2013-03-05 17:08:00,43.4,29.1,29.76,SE,135,2.2,4.3,57,0.00,,,0.00,Weather8,2013-03-05 22:08:00,
2013-03-05 17:13:00,43.2,28.9,29.77,South,180,0.9,4.3,57,0.00,,,0.00,Weather8,2013-03-05 22:13:00,
2013-03-05 17:18:00,43.2,28.9,29.77,ESE,112,2.2,4.3,57,0.00,,,0.00,Weather8,2013-03-05 22:18:00,
2013-03-05 17:23:00,43.0,29.2,29.77,SE,135,0.7,2.2,58,0.00,,,0.00,Weather8,2013-03-05 22:23:00,
2013-03-05 17:28:00,42.8,29.0,29.78,SSE,157,2.5,2.5,58,0.00,,,0.00,Weather8,2013-03-05 22:28:00,
2013-03-05 17:33:00,42.7,28.9,29.78,SE,135,1.1,2.5,58,0.00,,,0.00,Weather8,2013-03-05 22:33:00,
2013-03-05 17:38:00,42.7,28.9,29.78,SSE,157,1.1,2.5,58,0.00,,,0.00,Weather8,2013-03-05 22:38:00,
2013-03-05 17:43:00,42.5,29.2,29.78,SSE,157,0.4,1.1,59,0.00,,,0.00,Weather8,2013-03-05 22:43:00,
2013-03-05 17:48:00,42.5,29.2,29.78,ESE,112,0.7,1.1,59,0.00,,,0.00,Weather8,2013-03-05 22:48:00,
2013-03-05 17:53:00,42.3,29.0,29.78,SE,135,0.4,0.9,59,0.00,,,0.00,Weather8,2013-03-05 22:53:00,
2013-03-05 17:58:00,42.1,28.8,29.78,SSE,157,1.1,1.1,59,0.00,,,0.00,Weather8,2013-03-05 22:58:00,
2013-03-05 18:03:00,41.9,28.6,29.79,South,180,1.1,1.1,59,0.00,,,0.00,Weather8,2013-03-05 23:03:00,
2013-03-05 18:08:00,41.8,28.9,29.79,SW,225,1.3,1.8,60,0.00,,,0.00,Weather8,2013-03-05 23:08:00,
2013-03-05 18:13:00,41.6,28.7,29.79,SW,225,0.4,1.8,60,0.00,,,0.00,Weather8,2013-03-05 23:13:00,
2013-03-05 18:18:00,41.4,28.6,29.79,South,180,1.1,1.8,60,0.00,,,0.00,Weather8,2013-03-05 23:18:00,
2013-03-05 18:23:00,41.0,28.6,29.80,SSW,202,1.8,1.8,61,0.00,,,0.00,Weather8,2013-03-05 23:23:00,
2013-03-05 18:28:00,40.9,28.8,29.80,SSW,202,1.8,2.0,62,0.00,,,0.00,Weather8,2013-03-05 23:28:00,
2013-03-05 18:33:00,40.5,28.4,29.80,SSW,202,1.6,2.0,62,0.00,,,0.00,Weather8,2013-03-05 23:33:00,
2013-03-05 18:38:00,40.3,28.3,29.80,SSW,202,1.6,2.0,62,0.00,,,0.00,Weather8,2013-03-05 23:38:00,
2013-03-05 18:43:00,40.1,28.5,29.80,South,180,0.7,1.6,63,0.00,,,0.00,Weather8,2013-03-05 23:43:00,
2013-03-05 18:48:00,40.0,28.4,29.80,SSW,202,0.7,1.6,63,0.00,,,0.00,Weather8,2013-03-05 23:48:00,
2013-03-05 18:53:00,40.0,28.4,29.80,SSW,202,1.3,1.3,63,0.00,,,0.00,Weather8,2013-03-05 23:53:00,
2013-03-05 18:58:00,39.8,28.2,29.80,SSW,202,0.4,1.3,63,0.00,,,0.00,Weather8,2013-03-05 23:58:00,
2013-03-05 19:03:00,39.6,28.0,29.80,SSW,202,0.9,1.3,63,0.00,,,0.00,Weather8,2013-03-06 00:03:00,
2013-03-05 19:08:00,39.4,27.8,29.80,SSW,202,1.3,1.3,63,0.00,,,0.00,Weather8,2013-03-06 00:08:00,
2013-03-05 19:13:00,39.2,27.6,29.80,SSW,202,0.9,1.3,63,0.00,,,0.00,Weather8,2013-03-06 00:13:00,
2013-03-05 19:18:00,39.1,27.5,29.80,SW,225,0.7,1.3,63,0.00,,,0.00,Weather8,2013-03-06 00:18:00,
2013-03-05 19:23:00,39.1,27.5,29.80,SSW,202,0.7,1.3,63,0.00,,,0.00,Weather8,2013-03-06 00:23:00,
2013-03-05 19:28:00,38.9,27.3,29.80,SSW,202,0.0,1.1,63,0.00,,,0.00,Weather8,2013-03-06 00:28:00,
2013-03-05 19:33:00,38.9,27.6,29.80,SSW,202,0.4,0.7,64,0.00,,,0.00,Weather8,2013-03-06 00:33:00,
2013-03-05 19:38:00,38.7,27.5,29.80,SW,225,0.7,0.7,64,0.00,,,0.00,Weather8,2013-03-06 00:38:00,
2013-03-05 19:43:00,38.5,27.4,29.80,SW,225,0.4,1.1,64,0.00,,,0.00,Weather8,2013-03-06 00:43:00,
2013-03-05 19:48:00,38.3,27.2,29.80,SW,225,0.0,1.1,64,0.00,,,0.00,Weather8,2013-03-06 00:48:00,
2013-03-05 19:53:00,38.2,27.0,29.80,SW,225,0.4,1.1,64,0.00,,,0.00,Weather8,2013-03-06 00:53:00,
2013-03-05 19:58:00,38.0,27.2,29.80,SW,225,0.0,0.7,65,0.00,,,0.00,Weather8,2013-03-06 00:58:00,
2013-03-05 20:03:00,37.8,27.1,29.80,SW,225,0.0,0.7,65,0.00,,,0.00,Weather8,2013-03-06 01:03:00,
2013-03-05 20:08:00,37.8,27.1,29.79,SW,225,0.0,0.2,65,0.00,,,0.00,Weather8,2013-03-06 01:08:00,
2013-03-05 23:17:00,34.4,26.6,29.77,SSE,157,0.4,0.4,73,0.00,,,0.00,Weather8,2013-03-06 04:17:00,
2013-03-05 23:22:00,34.6,27.0,29.77,ESE,112,1.3,1.6,74,0.00,,,0.00,Weather8,2013-03-06 04:22:00,
2013-03-05 23:27:00,34.9,27.7,29.77,ESE,112,1.6,1.6,75,0.00,,,0.00,Weather8,2013-03-06 04:27:00,
2013-03-05 23:32:00,35.1,28.3,29.77,ESE,112,1.1,1.6,76,0.00,,,0.00,Weather8,2013-03-06 04:32:00,
2013-03-05 23:37:00,35.6,29.1,29.77,ESE,112,1.3,1.6,77,0.00,,,0.00,Weather8,2013-03-06 04:37:00,
2013-03-05 23:42:00,36.0,29.8,29.76,SSE,157,3.4,3.4,78,0.00,,,0.00,Weather8,2013-03-06 04:42:00,
2013-03-05 23:47:00,36.4,30.2,29.76,SE,135,2.5,3.4,78,0.00,,,0.00,Weather8,2013-03-06 04:47:00,
2013-03-05 23:52:00,36.7,30.8,29.76,ESE,112,2.2,4.7,79,0.00,,,0.00,Weather8,2013-03-06 04:52:00,
2013-03-05 23:57:00,37.1,31.5,29.75,SSE,157,2.2,4.7,80,0.00,,,0.00,Weather8,2013-03-06 04:57:00,